GAF67 KMSO-KBOI

Flight info

Callsign GAF67
Flight time 0h 48m
Altitude 37000
Route DIDLY5 MSO DERSO KOURT4
Aircraft A359/H-SDE2E3GHIJ3J4J5LM1ORWXY/LB1D1

Departure

Time 2026-04-12 08:50
Airport Missoula Montana Airport (KMSO)

Arrival

Time 2026-04-12 09:39
Airport Boise Air Terminal/Gowen Field (KBOI)
Time Latitude Longitude Altitude Speed Heading
2026-04-12 08:36 46.91825 -114.08491 3211 ft 0 kts 60°
2026-04-12 08:44 46.91825 -114.08493 3211 ft 2 kts 60°
2026-04-12 08:45 46.91810 -114.08521 3203 ft 4 kts 31°
2026-04-12 08:45 46.91787 -114.08529 3203 ft 4 kts 339°
2026-04-12 08:45 46.91775 -114.08519 3204 ft 0 kts 310°
2026-04-12 08:46 46.91793 -114.08550 3203 ft 12 kts 310°
2026-04-12 08:47 46.91854 -114.08657 3208 ft 15 kts 308°
2026-04-12 08:47 46.91927 -114.08789 3207 ft 18 kts 311°
2026-04-12 08:47 46.92590 -114.10435 3209 ft 0 kts 282°
2026-04-12 08:48 46.92588 -114.10462 3207 ft 8 kts 261°
2026-04-12 08:48 46.92581 -114.10491 3205 ft 0 kts 243°
2026-04-12 08:48 46.92556 -114.10536 3203 ft 14 kts 229°
2026-04-12 08:49 46.92489 -114.10609 3200 ft 4 kts 198°
2026-04-12 08:49 46.92467 -114.10600 3200 ft 4 kts 148°
2026-04-12 08:49 46.92432 -114.10562 3200 ft 9 kts 142°
2026-04-12 08:49 46.92374 -114.10497 3200 ft 12 kts 142°
2026-04-12 08:50 46.92310 -114.10406 3202 ft 12 kts 120°
2026-04-12 08:50 46.92122 -114.10032 3201 ft 97 kts 131°
2026-04-12 08:50 46.91472 -114.08926 3501 ft 164 kts 134°
2026-04-12 08:50 46.90464 -114.08493 4900 ft 155 kts 192°
2026-04-12 08:51 46.89732 -114.09586 6218 ft 165 kts 252°
2026-04-12 08:51 46.89243 -114.11326 6826 ft 211 kts 232°
2026-04-12 08:51 46.87897 -114.12539 7657 ft 249 kts 193°
2026-04-12 08:51 46.86114 -114.12689 9052 ft 263 kts 183°
2026-04-12 08:52 46.84262 -114.12871 10479 ft 272 kts 189°
2026-04-12 08:52 46.82305 -114.13332 11341 ft 300 kts 193°
2026-04-12 08:52 46.80175 -114.14064 12040 ft 327 kts 196°
2026-04-12 08:52 46.78703 -114.14645 12751 ft 336 kts 197°
2026-04-12 08:53 46.76421 -114.15595 13968 ft 345 kts 198°
2026-04-12 08:53 46.74089 -114.16596 15141 ft 353 kts 198°
2026-04-12 08:53 46.70942 -114.17968 16755 ft 361 kts 199°
2026-04-12 08:53 46.68516 -114.19029 17931 ft 367 kts 199°
2026-04-12 08:54 46.66855 -114.19758 18673 ft 370 kts 199°
2026-04-12 08:54 46.64386 -114.20842 19790 ft 372 kts 199°
2026-04-12 08:54 46.61901 -114.21938 20858 ft 376 kts 199°
2026-04-12 08:54 46.59380 -114.23047 21859 ft 380 kts 199°
2026-04-12 08:55 46.56831 -114.24167 22817 ft 385 kts 199°
2026-04-12 08:55 46.54256 -114.25297 23688 ft 389 kts 199°
2026-04-12 08:55 46.51676 -114.26429 24420 ft 394 kts 199°
2026-04-12 08:55 46.49036 -114.27583 25186 ft 397 kts 199°
2026-04-12 08:56 46.46380 -114.28744 25935 ft 401 kts 199°
2026-04-12 08:56 46.43689 -114.29923 26688 ft 405 kts 199°
2026-04-12 08:56 46.40980 -114.31108 27458 ft 408 kts 199°
2026-04-12 08:56 46.38243 -114.32302 28202 ft 412 kts 199°
2026-04-12 08:57 46.35487 -114.33504 28917 ft 416 kts 199°
2026-04-12 08:57 46.32696 -114.34721 29598 ft 420 kts 199°
2026-04-12 08:57 46.29882 -114.35946 30222 ft 424 kts 199°
2026-04-12 08:57 46.27048 -114.37179 30853 ft 426 kts 199°
2026-04-12 08:58 46.24210 -114.38412 31485 ft 427 kts 199°
2026-04-12 08:58 46.21361 -114.39647 32106 ft 428 kts 199°
2026-04-12 08:58 46.18498 -114.40889 32672 ft 430 kts 199°
2026-04-12 08:58 46.15617 -114.42137 33208 ft 433 kts 199°
2026-04-12 08:59 46.12763 -114.43371 33718 ft 435 kts 199°
2026-04-12 08:59 46.09862 -114.44624 34129 ft 437 kts 199°
2026-04-12 08:59 46.06935 -114.45887 34477 ft 440 kts 199°
2026-04-12 08:59 46.03998 -114.47153 34932 ft 441 kts 199°
2026-04-12 09:00 46.01055 -114.48420 35371 ft 442 kts 199°
2026-04-12 09:00 45.98111 -114.49685 35800 ft 442 kts 199°
2026-04-12 09:00 45.95148 -114.50957 36209 ft 443 kts 199°
2026-04-12 09:00 45.92192 -114.52226 36650 ft 444 kts 199°
2026-04-12 09:01 45.89214 -114.53506 36810 ft 450 kts 199°
2026-04-12 09:01 45.83118 -114.56116 36819 ft 461 kts 199°
2026-04-12 09:02 45.76934 -114.58753 36818 ft 465 kts 199°
2026-04-12 09:02 45.70730 -114.61393 36805 ft 465 kts 199°
2026-04-12 09:02 45.67681 -114.62688 36820 ft 451 kts 199°
2026-04-12 09:03 45.64692 -114.63955 36822 ft 445 kts 199°
2026-04-12 09:03 45.58824 -114.66444 36821 ft 436 kts 199°
2026-04-12 09:04 45.53054 -114.68888 36825 ft 435 kts 199°
2026-04-12 09:04 45.47249 -114.71340 36805 ft 435 kts 199°
2026-04-12 09:05 45.41394 -114.73811 36831 ft 446 kts 199°
2026-04-12 09:05 45.35369 -114.76342 36837 ft 453 kts 198°
2026-04-12 09:06 45.29324 -114.78874 36826 ft 453 kts 198°
2026-04-12 09:06 45.23271 -114.81406 36824 ft 452 kts 198°
2026-04-12 09:07 45.17242 -114.83925 36839 ft 450 kts 199°
2026-04-12 09:07 45.11262 -114.86416 36829 ft 450 kts 199°
2026-04-12 09:08 45.05250 -114.88917 36851 ft 450 kts 198°
2026-04-12 09:08 44.99239 -114.91411 36822 ft 449 kts 198°
2026-04-12 09:09 44.93255 -114.93889 36830 ft 448 kts 198°
2026-04-12 09:09 44.87271 -114.96360 36825 ft 447 kts 198°
2026-04-12 09:10 44.81292 -114.98822 36811 ft 448 kts 198°
2026-04-12 09:10 44.75313 -115.01283 36806 ft 447 kts 198°
2026-04-12 09:11 44.69345 -115.03733 36798 ft 447 kts 198°
2026-04-12 09:11 44.63379 -115.06177 36798 ft 447 kts 198°
2026-04-12 09:12 44.57406 -115.08619 36681 ft 442 kts 198°
2026-04-12 09:12 44.54476 -115.09813 36397 ft 435 kts 198°
2026-04-12 09:12 44.51581 -115.10990 36144 ft 431 kts 198°
2026-04-12 09:12 44.48708 -115.12160 35896 ft 430 kts 198°
2026-04-12 09:13 44.45834 -115.13328 35633 ft 430 kts 198°
2026-04-12 09:13 44.42961 -115.14495 35391 ft 429 kts 198°
2026-04-12 09:13 44.40087 -115.15662 35141 ft 429 kts 198°
2026-04-12 09:13 44.37255 -115.16810 34890 ft 429 kts 198°
2026-04-12 09:14 44.34386 -115.17971 34638 ft 429 kts 198°
2026-04-12 09:14 44.31522 -115.19130 34378 ft 429 kts 198°
2026-04-12 09:14 44.28664 -115.20285 34150 ft 426 kts 198°
2026-04-12 09:14 44.25821 -115.21431 33915 ft 425 kts 198°
2026-04-12 09:15 44.22983 -115.22576 33648 ft 425 kts 198°
2026-04-12 09:15 44.20142 -115.23717 33374 ft 425 kts 198°
2026-04-12 09:15 44.17297 -115.24865 33095 ft 426 kts 197°
2026-04-12 09:15 44.14440 -115.26017 32810 ft 428 kts 198°
2026-04-12 09:16 44.11572 -115.27172 32578 ft 430 kts 197°
2026-04-12 09:16 44.08692 -115.28330 32304 ft 432 kts 197°
2026-04-12 09:16 44.05796 -115.29490 32030 ft 433 kts 197°
2026-04-12 09:16 44.02902 -115.30653 31763 ft 434 kts 197°
2026-04-12 09:17 43.99993 -115.31819 31495 ft 436 kts 197°
2026-04-12 09:17 43.97070 -115.32985 31243 ft 438 kts 197°
2026-04-12 09:17 43.94124 -115.34157 30998 ft 440 kts 197°
2026-04-12 09:17 43.91180 -115.35331 30732 ft 441 kts 197°
2026-04-12 09:18 43.88217 -115.36513 30496 ft 443 kts 197°
2026-04-12 09:18 43.85250 -115.37693 30239 ft 445 kts 197°
2026-04-12 09:18 43.82260 -115.38881 30010 ft 447 kts 197°
2026-04-12 09:18 43.79262 -115.40074 29761 ft 449 kts 196°
2026-04-12 09:19 43.76248 -115.41270 29472 ft 451 kts 196°
2026-04-12 09:19 43.73235 -115.42468 29177 ft 450 kts 196°
2026-04-12 09:19 43.70229 -115.43657 28892 ft 449 kts 196°
2026-04-12 09:20 43.64286 -115.46004 28341 ft 446 kts 196°
2026-04-12 09:20 43.61305 -115.47180 28066 ft 443 kts 196°
2026-04-12 09:20 43.55457 -115.49483 27718 ft 421 kts 196°
2026-04-12 09:21 43.52706 -115.50565 27734 ft 401 kts 196°
2026-04-12 09:21 43.50089 -115.51595 27718 ft 382 kts 196°
2026-04-12 09:21 43.47589 -115.52591 27716 ft 364 kts 197°
2026-04-12 09:21 43.45419 -115.54177 27720 ft 348 kts 217°
2026-04-12 09:22 43.43934 -115.56714 27725 ft 348 kts 239°
2026-04-12 09:22 43.43297 -115.59998 27718 ft 360 kts 262°
2026-04-12 09:22 43.43651 -115.63409 27712 ft 375 kts 283°
2026-04-12 09:22 43.44981 -115.66557 27723 ft 390 kts 306°
2026-04-12 09:23 43.47126 -115.68909 27729 ft 403 kts 328°
2026-04-12 09:23 43.49812 -115.70109 27726 ft 412 kts 350°
2026-04-12 09:23 43.52680 -115.70238 27722 ft 415 kts
2026-04-12 09:23 43.55544 -115.69620 27731 ft 417 kts 15°
2026-04-12 09:24 43.58233 -115.68152 27730 ft 416 kts 30°
2026-04-12 09:24 43.60542 -115.65796 27736 ft 412 kts 47°
2026-04-12 09:24 43.62269 -115.62709 27728 ft 403 kts 65°
2026-04-12 09:24 43.63284 -115.59163 27714 ft 394 kts 82°
2026-04-12 09:25 43.63548 -115.55444 27744 ft 385 kts 98°
2026-04-12 09:25 43.63083 -115.51863 27737 ft 375 kts 114°
2026-04-12 09:25 43.61974 -115.48669 27743 ft 365 kts 130°
2026-04-12 09:25 43.60348 -115.46056 27727 ft 356 kts 144°
2026-04-12 09:26 43.58339 -115.44141 27732 ft 348 kts 158°
2026-04-12 09:26 43.56095 -115.42999 27726 ft 342 kts 171°
2026-04-12 09:26 43.53782 -115.42653 27722 ft 338 kts 183°
2026-04-12 09:26 43.51498 -115.43057 27539 ft 323 kts 195°
2026-04-12 09:27 43.49431 -115.44152 26603 ft 318 kts 210°
2026-04-12 09:27 43.47764 -115.46209 25449 ft 329 kts 230°
2026-04-12 09:27 43.46471 -115.48840 24231 ft 336 kts 234°
2026-04-12 09:27 43.45392 -115.51757 22806 ft 349 kts 244°
2026-04-12 09:28 43.44784 -115.54617 21427 ft 361 kts 255°
2026-04-12 09:28 43.44680 -115.58131 19847 ft 375 kts 270°
2026-04-12 09:28 43.45028 -115.61731 18269 ft 383 kts 274°
2026-04-12 09:28 43.45470 -115.65378 16431 ft 389 kts 275°
2026-04-12 09:29 43.45924 -115.69098 14969 ft 401 kts 275°
2026-04-12 09:29 43.46387 -115.72935 14195 ft 408 kts 275°
2026-04-12 09:29 43.46853 -115.76809 13860 ft 408 kts 275°
2026-04-12 09:29 43.47313 -115.80634 13828 ft 404 kts 275°
2026-04-12 09:30 43.47765 -115.84458 13998 ft 404 kts 275°
2026-04-12 09:30 43.48211 -115.88228 14015 ft 403 kts 275°
2026-04-12 09:30 43.48657 -115.92036 13827 ft 402 kts 275°
2026-04-12 09:30 43.49099 -115.95846 13584 ft 402 kts 275°
2026-04-12 09:31 43.49540 -115.99642 13343 ft 402 kts 275°
2026-04-12 09:31 43.49979 -116.03434 13086 ft 400 kts 275°
2026-04-12 09:31 43.50415 -116.07217 12825 ft 399 kts 276°
2026-04-12 09:31 43.50849 -116.10989 12563 ft 397 kts 276°
2026-04-12 09:32 43.51279 -116.14734 12305 ft 396 kts 276°
2026-04-12 09:32 43.51707 -116.18475 12041 ft 395 kts 276°
2026-04-12 09:32 43.52124 -116.22106 11408 ft 371 kts 276°
2026-04-12 09:32 43.52518 -116.25552 10116 ft 360 kts 277°
2026-04-12 09:33 43.52904 -116.28968 8683 ft 358 kts 278°
2026-04-12 09:33 43.53278 -116.32268 7949 ft 336 kts 277°
2026-04-12 09:33 43.53626 -116.35329 7433 ft 312 kts 277°
2026-04-12 09:33 43.53947 -116.38170 6786 ft 298 kts 277°
2026-04-12 09:34 43.54310 -116.40950 5980 ft 292 kts 283°
2026-04-12 09:34 43.55250 -116.43360 5344 ft 280 kts 312°
2026-04-12 09:34 43.56779 -116.44856 4814 ft 265 kts 339°
2026-04-12 09:34 43.58551 -116.45193 4295 ft 253 kts
2026-04-12 09:35 43.60135 -116.44300 4063 ft 242 kts 40°
2026-04-12 09:35 43.61058 -116.42601 4022 ft 208 kts 73°
2026-04-12 09:35 43.61261 -116.40694 4037 ft 199 kts 87°
2026-04-12 09:35 43.61400 -116.38802 3989 ft 198 kts 84°
2026-04-12 09:36 43.61305 -116.36894 4017 ft 199 kts 101°
2026-04-12 09:36 43.60779 -116.35160 4034 ft 202 kts 120°
2026-04-12 09:36 43.60083 -116.33424 4039 ft 199 kts 116°
2026-04-12 09:36 43.59542 -116.31820 4024 ft 169 kts 112°
2026-04-12 09:37 43.59097 -116.30431 3912 ft 152 kts 113°
2026-04-12 09:37 43.58670 -116.29155 3709 ft 141 kts 114°
2026-04-12 09:37 43.58262 -116.27962 3531 ft 133 kts 113°
2026-04-12 09:37 43.57876 -116.26825 3340 ft 129 kts 114°
2026-04-12 09:38 43.57500 -116.25718 3167 ft 129 kts 114°
2026-04-12 09:38 43.57242 -116.24958 3027 ft 130 kts 115°
2026-04-12 09:38 43.56712 -116.23437 2889 ft 127 kts 115°
2026-04-12 09:38 43.56511 -116.22822 2892 ft 71 kts 115°
2026-04-12 09:39 43.56430 -116.22445 2886 ft 0 kts 46°
2026-04-12 09:39 43.56453 -116.22437 2886 ft 15 kts 12°
2026-04-12 09:39 43.56594 -116.22405 2887 ft 22 kts
2026-04-12 09:39 43.56678 -116.22375 2886 ft 5 kts 36°
2026-04-12 09:40 43.56665 -116.22291 2885 ft 30 kts 115°
2026-04-12 09:40 43.56604 -116.22027 2886 ft 19 kts 91°
2026-04-12 09:40 43.56605 -116.21894 2883 ft 0 kts 75°
2026-04-12 09:40 43.56615 -116.21889 2883 ft 2 kts 15°
2026-04-12 09:41 43.56632 -116.21888 2883 ft 4 kts 11°
2026-04-12 09:41 43.56643 -116.21883 2883 ft 0 kts 18°
2026-04-12 09:41 43.56646 -116.21881 2883 ft 2 kts 18°
2026-04-12 09:41 43.56635 -116.21886 2884 ft 0 kts 19°
2026-04-12 09:42 43.56638 -116.21885 2883 ft 1 kts 17°
2026-04-12 09:53 43.56629 -116.21888 2883 ft 4 kts 43°
2026-04-12 09:53 43.56621 -116.21902 2883 ft 4 kts 25°
2026-04-12 09:53 43.56605 -116.21906 2884 ft 4 kts 304°
2026-04-12 09:54 43.56595 -116.21881 2883 ft 4 kts 295°
2026-04-12 09:54 43.56588 -116.21858 2883 ft 1 kts 295°
2026-04-12 09:56 43.56588 -116.21860 2883 ft 1 kts 295°
2026-04-12 09:56 43.56613 -116.21926 2884 ft 14 kts 295°
2026-04-12 09:57 43.56644 -116.22057 2886 ft 15 kts 274°
2026-04-12 09:57 43.56646 -116.22210 2885 ft 17 kts 276°
2026-04-12 09:57 43.56690 -116.22372 2886 ft 19 kts 293°
2026-04-12 09:57 43.56746 -116.22550 2885 ft 22 kts 293°
2026-04-12 09:58 43.56816 -116.22743 2885 ft 20 kts 296°
2026-04-12 09:58 43.56880 -116.22936 2882 ft 24 kts 294°
2026-04-12 09:58 43.56956 -116.23152 2882 ft 26 kts 295°
2026-04-12 09:58 43.57038 -116.23390 2885 ft 27 kts 295°
2026-04-12 09:59 43.57109 -116.23617 2888 ft 24 kts 282°
2026-04-12 09:59 43.57096 -116.23838 2889 ft 24 kts 255°
2026-04-12 09:59 43.57066 -116.24044 2889 ft 2 kts 256°
2026-04-12 10:01 43.57065 -116.24049 2889 ft 4 kts 257°
2026-04-12 10:01 43.57060 -116.24080 2890 ft 0 kts 257°